Location: Cicognara
(44.9500°N, 10.4667°E)
Time: 23:30:07
(UTC+00:00)

Cosmos 2058 Rocket - Pass Details

Date: 20 June 2021
Orbit: 609 x 640 km, 82.5° (Epoch: 23 July)

Event Time Altitude Azimuth Distance (km) Brightness Sun altitude
Rises 21:19:11 0° 2° (N) 2,925 7.6 -16.3°
Reaches altitude 10° 21:21:45 10° 15° (NNE) 2,007 6.4 -16.5°
Maximum altitude 21:25:29 26° 72° (ENE) 1,232 4.5 -16.8°
Enters shadow 21:27:06 21° 106° (ESE) 1,405 4.5 -16.9°
